Location: Nairn
(57.5833°N, 3.8667°W)
Time: 10:32:54
(UTC+00:00)

N. Korean satellite - Pass Details

Date: 27 October 2020
Orbit: 452 x 504 km, 97.2° (Epoch: 25 November)

Event Time Altitude Azimuth Distance (km) Brightness Sun altitude
Rises 05:20:40 0° 21° (NNE) 2,496 10.5 -16.1°
Reaches altitude 10° 05:22:54 10° 33° (NNE) 1,611 9.6 -15.8°
Maximum altitude 05:25:58 29° 95° (E) 868 8.7 -15.4°
Drops below altitude 10° 05:28:59 10° 158° (SSE) 1,591 9.5 -15.0°
Sets 05:31:11 0° 170° (S) 2,459 10.3 -14.7°
